FW9731 Weather Reports


time (UTC)temp
C
wind
direction
speed
KPH
gust
KPH
rain 1hr
cm
rain 24hr
cm
rain mn
cm
humidity
%
barometer
mb
20260505210656 28 168 4.8 11.3 0.00 0.00 0.00 77 1007.1
20260505210153 29 128 4.8 8.0 0.00 0.00 0.00 76 1007.6
20260505205650 28 114 11.3 14.5 0.00 0.00 0.00 76 1007.2
20260505205148 28 135 3.2 4.8 0.00 0.00 0.00 77 1007.9
20260505204645 28 246 4.8 9.7 0.00 0.00 0.00 77 1007.8
20260505204143 28 96 6.4 8.0 0.00 0.00 0.00 78 1007.7
20260505203640 28 173 4.8 9.7 0.00 0.00 0.00 77 1007.7
20260505203136 28 180 16.1 20.9 0.00 0.00 0.00 78 1007.3
20260505202632 28 169 6.4 8.0 0.00 0.00 0.00 79 1007.6
20260505202128 27 208 4.8 8.0 0.00 0.00 0.00 79 1007.3
20260505201625 28 207 4.8 8.0 0.00 0.00 0.00 78 1007.6
20260505201123 28 208 8.0 11.3 0.00 0.00 0.00 77 1007.7
20260505200621 28 182 4.8 8.0 0.00 0.00 0.00 77 1007.8
20260505200118 28 176 8.0 9.7 0.00 0.00 0.00 78 1008.0
20260505195614 28 156 1.6 3.2 0.00 0.00 0.00 77 1008.1
20260505195111 28 287 4.8 9.7 0.00 0.00 0.00 77 1007.8
20260505194608 28 285 4.8 4.8 0.00 0.00 0.00 78 1007.8
20260505194104 28 190 11.3 14.5 0.00 0.00 0.00 77 1008.0
20260505193601 28 182 1.6 1.6 0.00 0.00 0.00 79 1007.9
20260505193058 28 206 8.0 12.9 0.00 0.00 0.00 77 1008.3
20260505192557 27 227 9.7 16.1 0.00 0.00 0.00 78 1008.3
20260505192054 28 176 9.7 12.9 0.00 0.00 0.00 78 1008.2
20260505191552 27 129 6.4 9.7 0.00 0.00 0.00 79 1007.8
20260505191049 27 166 12.9 14.5 0.00 0.00 0.00 78 1008.2
20260505190544 27 160 9.7 14.5 0.00 0.00 0.00 78 1008.1
20260505190040 27 276 4.8 11.3 0.00 0.00 0.00 79 1008.3
20260505185537 27 167 6.4 9.7 0.00 0.00 0.00 79 1008.1
20260505185033 27 157 11.3 14.5 0.00 0.00 0.00 78 1008.3
20260505184530 27 134 3.2 4.8 0.00 0.00 0.00 80 1008.5
20260505184027 27 135 3.2 4.8 0.00 0.00 0.00 80 1008.5
20260505183524 27 199 12.9 20.9 0.00 0.00 0.00 80 1008.7
20260505183021 27 64 4.8 4.8 0.00 0.00 0.00 80 1008.5
20260505182518 27 147 12.9 16.1 0.00 0.00 0.00 81 1008.5
20260505182014 26 232 8.0 12.9 0.00 0.00 0.00 82 1008.5
20260505181511 26 152 4.8 4.8 0.00 0.00 0.00 81 1009.1
20260505181009 27 165 6.4 8.0 0.00 0.00 0.00 80 1009.2
20260505180504 27 147 1.6 3.2 0.00 0.00 0.00 81 1009.0
20260505180002 27 133 9.7 12.9 0.00 0.00 0.00 80 1009.1
20260505175457 27 166 8.0 16.1 0.00 0.00 0.00 82 1009.0
20260505174954 26 142 1.6 1.6 0.00 0.00 0.00 82 1009.0
20260505174451 26 147 8.0 12.9 0.00 0.00 0.00 82 1009.0
20260505173947 26 230 4.8 9.7 0.00 0.00 0.00 83 1009.6
20260505173444 26 303 4.8 4.8 0.00 0.00 0.00 85 1009.6
20260505172941 25 188 3.2 4.8 0.00 0.00 0.00 86 1009.6
20260505172439 25 182 8.0 11.3 0.00 0.00 0.00 86 1009.5
20260505171938 25 156 3.2 8.0 0.00 0.00 0.00 87 1009.6
20260505171435 25 159 6.4 11.3 0.00 0.00 0.00 87 1009.2
20260505170932 25 209 4.8 4.8 0.00 0.00 0.00 87 1009.2
20260505170429 25 179 4.8 4.8 0.00 0.00 0.00 88 1009.1
20260505165924 25 140 1.6 1.6 0.00 0.00 0.00 89 1009.6
20260505165420 24 140 3.2 4.8 0.00 0.00 0.00 89 1009.4
20260505164916 25 159 8.0 11.3 0.00 0.00 0.00 89 1009.5
20260505164413 25 214 3.2 3.2 0.00 0.00 0.00 88 1009.3
20260505163911 25 184 1.6 1.6 0.00 0.00 0.00 88 1009.3
20260505163410 25 172 4.8 9.7 0.00 0.00 0.00 88 1009.0
20260505162908 24 158 6.4 8.0 0.00 0.00 0.00 89 1009.3
20260505162403 24 114 8.0 11.3 0.00 0.00 0.00 89 1009.6
20260505161900 24 144 4.8 4.8 0.00 0.00 0.00 90 1009.5
20260505161357 23 150 4.8 4.8 0.00 0.00 0.00 90 1009.6
20260505160854 23 156 8.0 9.7 0.00 0.00 0.00 90 1009.7
20260505160353 23 76 6.4 9.7 0.00 0.00 0.00 91 1009.5
20260505153331 23 172 9.7 14.5 0.00 0.00 0.00 93 1009.6
20260505152828 22 206 4.8 8.0 0.00 0.00 0.00 94 1009.5
20260505152325 22 157 4.8 11.3 0.00 0.00 0.00 94 1009.4
20260505151820 22 146 6.4 9.7 0.00 0.00 0.00 94 1009.5
20260505151317 22 180 8.0 11.3 0.00 0.00 0.00 94 1009.3
20260505150813 22 198 6.4 8.0 0.00 0.00 0.00 94 1009.5
20260505150311 22 39 3.2 3.2 0.00 0.00 0.00 94 1009.6
20260505140235 22 175 4.8 8.0 0.00 0.00 0.00 94 1009.3
20260505130159 21 158 4.8 9.7 0.00 0.00 0.00 95 1008.7
20260505124649 21 155 8.0 17.7 0.00 0.00 0.00 95 1008.7
20260505124145 21 205 4.8 8.0 0.00 0.00 0.00 95 1008.7
20260505123641 21 154 3.2 4.8 0.00 0.00 0.00 95 1008.4
20260505123139 21 161 8.0 9.7 0.00 0.00 0.00 95 1008.5
20260505122635 21 171 4.8 8.0 0.00 0.00 0.00 95 1008.5
20260505122132 21 189 4.8 4.8 0.00 0.00 0.00 95 1008.1
20260505121628 21 178 4.8 8.0 0.00 0.00 0.00 95 1008.1
20260505121125 21 203 3.2 8.0 0.00 0.00 0.00 95 1008.1
20260505120621 21 146 4.8 8.0 0.00 0.00 0.00 94 1008.2
20260505120118 21 323 4.8 4.8 0.00 0.00 0.00 94 1008.4
20260505115612 21 173 4.8 4.8 0.00 0.00 0.00 94 1008.0
20260505115110 21 177 4.8 8.0 0.00 0.00 0.00 94 1007.9
20260505114606 21 179 4.8 9.7 0.00 0.00 0.00 94 1007.9
20260505114103 21 182 6.4 9.7 0.00 0.00 0.00 94 1008.0
20260505113559 21 173 6.4 8.0 0.00 0.00 0.00 94 1007.8
20260505113056 21 168 3.2 4.8 0.00 0.00 0.00 94 1007.7
20260505112552 21 214 4.8 4.8 0.00 0.00 0.00 94 1007.9
20260505112050 21 157 8.0 9.7 0.00 0.00 0.00 94 1008.0
20260505111544 21 160 6.4 8.0 0.00 0.00 0.00 94 1007.6
20260505111040 21 171 3.2 3.2 0.00 0.00 0.00 94 1007.8
20260505110537 21 260 4.8 8.0 0.00 0.00 0.00 94 1007.8
20260505102009 21 211 6.4 8.0 0.00 0.00 0.00 95 1008.2
20260505101508 21 171 6.4 9.7 0.00 0.00 0.00 95 1008.2
20260505101004 21 155 3.2 3.2 0.00 0.00 0.00 95 1008.0
20260505100501 21 179 4.8 8.0 0.00 0.00 0.00 95 1007.9
20260505095957 21 159 6.4 9.7 0.00 0.00 0.00 95 1008.1
20260505095454 21 95 0.0 1.6 0.00 0.00 0.00 95 1008.1
20260505094950 21 165 4.8 4.8 0.00 0.00 0.00 94 1008.1
20260505094447 21 171 1.6 3.2 0.00 0.00 0.00 94 1008.1
20260505093943 21 199 3.2 9.7 0.00 0.00 0.00 94 1008.2
20260505093440 21 135 0.0 1.6 0.00 0.00 0.00 94 1008.1
20260505092937 21 142 6.4 8.0 0.00 0.00 0.00 94 1008.1
20260505092435 21 144 8.0 14.5 0.00 0.00 0.00 94 1008.0
20260505091932 21 202 9.7 12.9 0.00 0.00 0.00 94 1007.9
20260505091430 21 179 8.0 11.3 0.00 0.00 0.00 94 1008.0
20260505090927 21 125 8.0 17.7 0.00 0.00 0.00 94 1008.0
20260505090425 21 144 12.9 14.5 0.00 0.00 0.00 94 1008.1
20260505085922 21 169 8.0 8.0 0.00 0.00 0.00 94 1008.1
20260505085420 21 161 12.9 16.1 0.00 0.00 0.00 94 1008.4
20260505084918 21 224 11.3 16.1 0.00 0.00 0.00 94 1007.8
20260505084416 21 204 11.3 12.9 0.00 0.00 0.00 94 1008.2
20260505083914 21 178 8.0 9.7 0.00 0.00 0.00 94 1008.4
20260505083411 21 190 8.0 9.7 0.00 0.00 0.00 94 1008.1
20260505082907 21 139 4.8 8.0 0.00 0.00 0.00 94 1008.2
20260505082403 21 176 4.8 8.0 0.00 0.00 0.00 94 1008.6
20260505081900 21 173 4.8 8.0 0.00 0.00 0.00 94 1008.9
20260505081357 21 160 11.3 14.5 0.00 0.00 0.00 94 1008.6
20260505080853 21 154 3.2 4.8 0.00 0.00 0.00 94 1008.9
20260505080349 21 161 8.0 12.9 0.00 0.00 0.00 94 1008.9
20260505075845 21 176 4.8 8.0 0.00 0.00 0.00 93 1008.8
20260505075342 21 141 12.9 16.1 0.00 0.00 0.00 93 1009.2
20260505074839 21 144 8.0 12.9 0.00 0.00 0.00 93 1009.3
20260505074337 21 135 8.0 11.3 0.00 0.00 0.00 93 1009.4
20260505073834 21 152 4.8 8.0 0.00 0.00 0.00 93 1009.2
20260505073332 21 154 6.4 9.7 0.00 0.00 0.00 93 1009.1
20260505072828 21 197 4.8 9.7 0.00 0.00 0.00 93 1009.2
20260505072324 21 127 8.0 9.7 0.00 0.00 0.00 93 1009.6
20260505071820 21 143 8.0 11.3 0.00 0.00 0.00 93 1009.6
20260505071317 21 203 8.0 14.5 0.00 0.00 0.00 93 1009.7
20260505070816 21 211 8.0 9.7 0.00 0.00 0.00 93 1009.9
20260505070312 21 164 4.8 8.0 0.00 0.00 0.00 93 1009.7
20260505065807 21 152 8.0 11.3 0.00 0.00 0.00 93 1009.6
20260505065304 21 171 8.0 12.9 0.00 0.00 0.00 93 1009.5
20260505064801 21 209 4.8 4.8 0.00 0.00 0.00 93 1009.7
20260505064258 21 186 1.6 1.6 0.00 0.00 0.00 93 1010.1
20260505063756 21 141 4.8 4.8 0.00 0.00 0.00 93 1009.8
20260505063252 21 169 1.6 3.2 0.00 0.00 0.00 93 1010.2
20260505062749 21 152 4.8 9.7 0.00 0.00 0.00 93 1010.2
20260505062246 21 168 8.0 9.7 0.00 0.00 0.00 93 1010.2
20260505061743 21 151 3.2 3.2 0.00 0.00 0.00 92 1010.1
20260505061241 21 182 8.0 9.7 0.00 0.00 0.00 92 1009.8
20260505060738 21 171 1.6 3.2 0.00 0.00 0.00 92 1010.2
20260505060235 21 165 3.2 3.2 0.00 0.00 0.00 92 1010.2
20260505055730 21 184 6.4 9.7 0.00 0.00 0.00 92 1010.2
20260505055227 21 213 4.8 4.8 0.00 0.00 0.00 92 1009.9
20260505054724 21 187 3.2 4.8 0.00 0.00 0.00 92 1010.2
20260505054222 21 163 8.0 11.3 0.00 0.00 0.00 92 1010.2
20260505053720 21 176 3.2 3.2 0.00 0.00 0.00 92 1009.9
20260505053216 21 159 6.4 9.7 0.00 0.00 0.00 92 1010.1
20260505052714 21 171 4.8 4.8 0.00 0.00 0.00 91 1010.0
20260505052210 21 175 3.2 3.2 0.00 0.00 0.00 91 1010.0
20260505051708 21 149 3.2 3.2 0.00 0.00 0.00 91 1010.2
20260505051206 21 140 6.4 9.7 0.00 0.00 0.00 90 1010.2
20260505050703 21 166 4.8 4.8 0.00 0.00 0.00 90 1010.1
20260505050201 22 189 3.2 3.2 0.00 0.00 0.00 89 1009.8
20260505041631 22 138 6.4 9.7 0.00 0.00 0.00 87 1010.0
20260505041128 22 161 3.2 4.8 0.00 0.00 0.00 87 1010.0
20260505040625 22 178 4.8 4.8 0.00 0.00 0.00 87 1009.9
20260505040122 22 132 3.2 3.2 0.00 0.00 0.00 86 1010.0
20260505035618 22 160 4.8 4.8 0.00 0.00 0.00 86 1010.1
20260505035115 22 155 6.4 8.0 0.00 0.00 0.00 86 1010.0
20260505034612 22 187 4.8 8.0 0.00 0.00 0.00 85 1009.9
20260505034108 22 196 4.8 4.8 0.00 0.00 0.00 85 1009.9
20260505033605 22 167 3.2 4.8 0.00 0.00 0.00 85 1009.5
20260505033104 22 140 3.2 3.2 0.00 0.00 0.00 84 1009.5
20260505032601 22 160 3.2 4.8 0.00 0.00 0.00 84 1010.1
20260505032057 23 150 3.2 3.2 0.00 0.00 0.00 83 1010.0
20260505031555 23 153 4.8 9.7 0.00 0.00 0.00 83 1010.0
20260505031051 23 201 8.0 11.3 0.00 0.00 0.00 83 1009.9
20260505030548 23 127 3.2 4.8 0.00 0.00 0.00 83 1009.9
20260505030044 23 185 4.8 4.8 0.00 0.00 0.00 82 1009.7
20260505025540 23 158 1.6 3.2 0.00 0.00 0.00 82 1009.9
20260505025039 23 171 1.6 3.2 0.00 0.00 0.00 82 1009.8
20260505024536 23 174 1.6 3.2 0.00 0.00 0.00 81 1009.8
20260505024032 23 169 3.2 4.8 0.00 0.00 0.00 81 1009.6
20260505023530 23 170 4.8 4.8 0.00 0.00 0.00 80 1009.9
20260505023027 23 216 4.8 4.8 0.00 0.00 0.00 80 1009.5
20260505022525 23 168 3.2 3.2 0.00 0.00 0.00 80 1009.4
20260505022022 23 167 8.0 11.3 0.00 0.00 0.00 80 1009.5
20260505021518 23 163 4.8 4.8 0.00 0.00 0.00 80 1009.7
20260505021015 23 163 6.4 9.7 0.00 0.00 0.00 79 1009.5
20260505020514 23 207 1.6 3.2 0.00 0.00 0.00 79 1009.4
20260505020012 23 140 6.4 8.0 0.00 0.00 0.00 79 1009.2
20260505015509 23 203 4.8 4.8 0.00 0.00 0.00 78 1009.3
20260505015006 23 181 9.7 11.3 0.00 0.00 0.00 78 1009.2
20260505014503 23 159 4.8 8.0 0.00 0.00 0.00 78 1009.2
20260505014000 23 157 3.2 4.8 0.00 0.00 0.00 78 1009.2
20260505013457 23 181 6.4 9.7 0.00 0.00 0.00 78 1009.2
20260505012954 24 178 3.2 4.8 0.00 0.00 0.00 78 1009.3
20260505012452 24 152 4.8 8.0 0.00 0.00 0.00 78 1009.4
20260505011949 24 188 4.8 4.8 0.00 0.00 0.00 78 1009.3
20260505011445 24 170 3.2 3.2 0.00 0.00 0.00 78 1009.4
20260505010942 24 148 4.8 8.0 0.00 0.00 0.00 77 1009.4
20260505010437 24 174 1.6 1.6 0.00 0.00 0.00 77 1009.1
20260505005934 25 199 4.8 8.0 0.00 0.00 0.00 76 1009.1
20260505005431 25 207 6.4 8.0 0.00 0.00 0.00 75 1009.3
20260505004928 25 163 3.2 4.8 0.00 0.00 0.00 75 1009.4
20260505004425 25 173 1.6 1.6 0.00 0.00 0.00 75 1009.4
20260505003922 25 202 3.2 4.8 0.00 0.00 0.00 75 1009.4
20260505003419 25 191 3.2 8.0 0.00 0.00 0.00 74 1009.3
20260505002915 25 211 6.4 8.0 0.00 0.00 0.00 73 1009.5
20260505002411 25 191 9.7 11.3 0.00 0.00 0.00 73 1009.3
20260505001910 25 163 9.7 11.3 0.00 0.00 0.00 72 1009.5
20260505001407 25 153 3.2 4.8 0.00 0.00 0.00 72 1009.4
20260505000904 26 212 6.4 8.0 0.00 0.00 0.00 71 1009.2
20260505000402 26 165 8.0 16.1 0.00 0.00 0.00 70 1009.6
20260504235858 26 168 12.9 16.1 0.00 0.00 0.00 70 1009.5
20260504235355 26 164 3.2 3.2 0.00 0.00 0.00 70 1009.6
20260504234851 26 148 1.6 3.2 0.00 0.00 0.00 70 1009.8
20260504234349 26 190 3.2 4.8 0.00 0.00 0.00 70 1009.6
20260504233846 26 155 4.8 9.7 0.00 0.00 0.00 68 1009.5
20260504233341 27 187 4.8 8.0 0.00 0.00 0.00 68 1009.6
20260504232838 26 199 8.0 9.7 0.00 0.00 0.00 69 1009.8
20260504232336 26 196 6.4 9.7 0.00 0.00 0.00 69 1010.0
20260504231832 26 173 4.8 4.8 0.00 0.00 0.00 70 1010.0
20260504231329 27 188 8.0 9.7 0.00 0.00 0.00 68 1009.6
20260504230825 27 168 11.3 14.5 0.00 0.00 0.00 68 1009.7
20260504230323 27 194 8.0 16.1 0.00 0.00 0.00 69 1010.2
20260504225822 26 265 4.8 8.0 0.00 0.00 0.00 69 1010.1
20260504225317 26 159 8.0 11.3 0.00 0.00 0.00 70 1010.2
20260504224815 26 142 6.4 12.9 0.00 0.00 0.00 71 1010.0
20260504224312 26 209 3.2 4.8 0.00 0.00 0.00 70 1009.9
20260504223809 26 200 4.8 4.8 0.00 0.00 0.00 70 1010.0
20260504223304 26 185 6.4 9.7 0.00 0.00 0.00 70 1010.3
20260504222801 26 188 8.0 11.3 0.00 0.00 0.00 70 1010.4
20260504222258 26 127 1.6 3.2 0.00 0.00 0.00 71 1010.4
20260504221756 26 170 6.4 9.7 0.00 0.00 0.00 70 1010.4
20260504221253 26 221 3.2 3.2 0.00 0.00 0.00 69 1010.3
20260504220749 26 175 1.6 3.2 0.00 0.00 0.00 69 1010.6
20260504220246 26 135 9.7 12.9 0.00 0.00 0.00 67 1010.7
20260504215744 27 133 4.8 8.0 0.00 0.00 0.00 68 1010.8
20260504215240 27 160 14.5 16.1 0.00 0.00 0.00 67 1010.6
20260504214736 26 171 9.7 12.9 0.00 0.00 0.00 68 1010.4
20260504214232 26 189 9.7 12.9 0.00 0.00 0.00 68 1010.6
20260504213729 26 184 8.0 8.0 0.00 0.00 0.00 69 1010.6
20260504213225 26 158 9.7 11.3 0.00 0.00 0.00 67 1011.0
20260504212722 26 181 8.0 11.3 0.00 0.00 0.00 68 1011.2
20260504212214 26 146 14.5 20.9 0.00 0.00 0.00 67 1011.4
20260504211711 27 172 4.8 8.0 0.00 0.00 0.00 68 1011.2
20260504211207 27 189 4.8 8.0 0.00 0.00 0.00 67 1011.4